Погода в Пагадиане

Филиппины     7°47′59″N   123°23′17″E
В апреле 2022 года жителям России запретили посещать сайт meteo.paraplan.net по решению Генеральной прокуратуры. Аудитория сайта уменьшилась в 10 раз. Владельцы сайта не видят смысла в поддержке погодного сервера в таких условиях. Сайт будет закрыт в октябре.
темп.,
°C
ветер,
м/с
пор.,
м/с
влажн.,
%
обл.,
%
осадки,
мм/ч
давл.,
гПа
погр.,
м
5 октября, ср
ср523:00+24с3489100 1.2 1011195
02:00+25св358795 1.3 1008203
05:00+25ссв358582 0.0 1009201
08:00+26ссв347966 0.0 1011322
11:00+30св246479 0.0 1010784
14:00+32в23595 0.0 1006759
17:00+28всв3575100 0.9 1008332
20:00+26св4784100 1.9 1010323
6 октября, чт
чт623:00+25зюз1188100 1.3 1010127
02:00+25ссз118698 1.3 1008140
05:00+25в118694 0.0 1009206
08:00+27ю1281100 0.0 1010480
11:00+29ююв337031 0.0 1009655
14:00+29юв447182 0.3 1007635
17:00+27в1176100 0.8 1008219
20:00+27св1177100 0.8 1010206
7 октября, пт
пт723:00+26ссз228588 1.4 1010115
02:00+25ссв228696 2.4 1009138
05:00+25с2288100 0.7 1009123
08:00+26ссв1183100 0.8 1011185
11:00+28с017695 0.0 1010327
14:00+29юв116717 0.1 1007617
17:00+28ююв2270100 0.5 1007141
20:00+27св227988 2.3 1010163
8 октября, сб
сб823:00+25ссз228784 3.2 101050
02:00+25сз1184100 7.3 100999
05:00+25св118534 0.0 1009174
08:00+27св118299 0.3 1011314
11:00+29юв227226 0.7 1010694
14:00+29ю227193 1.8 1007598
17:00+27ю1178100 2.9 1008152
20:00+25зсз1191100 7.3 101018
9 октября, вс
вс923:00+26с118599 1.7 101042
02:00+25с128586 3.0 100898
05:00+25с118764 0.3 1009104
08:00+26ссв118196 0.3 1011274
11:00+28ююв217535 0.9 1010553
14:00+29юв217116 1.8 1008587
17:00+28ю117888 3.3 1008136
20:00+24зсз1191100 9.8 101018